Flag for Luxembourg Weather past 2 weeks in Ettelbruck, Luxembourg

Now
52 °F

Overcast.


Feels Like: 51 °F
Forecast: 45 / 65 °F
Wind: 6 mph from Northeast

Location: Luxembourg / Luxembourg


UV Index: 3 (Moderate)

Visibility: 9 mi


Pressure: 29.78 "Hg

Humidity: 74%

Dew point: 44 °F

Location of EttelbruckLocation

Historic Weather in Ettelbruck

°F

Ettelbruck temperature yesterday

Maximum temperature yesterday: 59 °F (at 7:00 PM)
Minimum temperature yesterday: 39 °F (at 8:00 AM)
Average temperature yesterday: 48 °F

Past Weeks' High & Low Weather Summary

 TemperatureHumidityPressure
High67 °F (Apr 7, 5:00 PM)100% (Apr 9, 8:00 AM)30.41 "Hg (Apr 9, 8:00 AM)
Low35 °F (Apr 15, 8:00 AM)29% (Apr 17, 6:00 PM)29.79 "Hg (Apr 20, 12:00 AM)
Average51 °F65%30.11 "Hg
* Reported Apr 5 1:00 AM — Apr 20 1:00 AM, Ettelbruck, Weather by CustomWeather, © 2014

Note: Actual official high and low records may vary slightly from our data, if they occured in-between our weather recording intervals... More about our weather records

Advertising

Historic Weather Conditions — Data for Previous 24 hours

 ConditionsComfort  
Time TempWeatherWind HumidityBarometerVisibility
1:00 AM
Apr 20
53 °FOvercast.5 mph72%29.80 "Hg9 mi
12:00 AM54 °FOvercast.7 mph69%29.79 "Hg9 mi
11:00 PM
Apr 19
55 °FOvercast.7 mph65%29.80 "Hg9 mi
10:00 PM56 °FOvercast.6 mph63%29.81 "Hg9 mi
9:00 PM57 °FOvercast.7 mph56%29.81 "Hg9 mi
8:00 PM58 °FOvercast.5 mph49%29.81 "Hg19 mi
7:00 PM59 °FScattered clouds.8 mph45%29.80 "Hg19 mi
6:00 PM58 °FScattered clouds.10 mph45%29.83 "Hg19 mi
5:00 PM58 °FScattered clouds.9 mph44%29.84 "Hg22 mi
4:00 PM55 °FScattered clouds.9 mph47%29.86 "Hg22 mi
3:00 PM56 °FScattered clouds.9 mph44%29.88 "Hg22 mi
2:00 PM55 °FScattered clouds.9 mph47%29.91 "Hg19 mi
1:00 PM48 °FOvercast.9 mph59%29.95 "Hg19 mi
12:00 PM47 °FOvercast.7 mph63%29.97 "Hg12 mi
11:00 AM46 °FOvercast.7 mph71%29.98 "Hg12 mi
10:00 AM43 °FOvercast.7 mph77%29.99 "Hg9 mi
9:00 AM41 °FOvercast.7 mph81%29.99 "Hg9 mi
8:00 AM39 °FPartly sunny.6 mph85%29.99 "Hg7 mi
7:00 AM40 °FOvercast.6 mph84%29.98 "Hg7 mi
6:00 AM40 °FOvercast.7 mph81%29.97 "Hg7 mi
5:00 AM41 °FOvercast.7 mph80%29.96 "Hg9 mi
4:00 AM41 °FQuite cool.6 mph77%29.96 "Hg6 mi
3:00 AM42 °FQuite cool.6 mph73%29.96 "Hg6 mi
2:00 AM43 °FPassing clouds.5 mph71%29.98 "Hg19 mi
Weather by CustomWeather, © 2014

See weather overview